Fairfield, NJ

10:19 PM EST on February 21, 2017 (GMT -0500)
Essex County

Weather History for KCDW - March, 2014

Change the Weather History Date:

Tuesday, March 18, 2014

  Actual Average Record
Temperature  
Mean Temperature 31 °F -  
Max Temperature 41 °F 49 °F 77 °F (1990)
Min Temperature 21 °F 26 °F 2 °F (1967)
Degree Days  
Heating Degree Days 34    
Moisture  
Dew Point 5 °F    
Average Humidity 36    
Maximum Humidity 51    
Minimum Humidity 14    
Precipitation  
Precipitation 0.00 in - - ()
Sea Level Pressure  
Sea Level Pressure 30.27 in    
Wind  
Wind Speed 4 mph (East)    
Max Wind Speed 12 mph    
Max Gust Speed 18 mph    
Visibility 10 miles    
Events      
Averages and records for this station are not official NWS values.
T = Trace of Precipitation, MM = Missing Value Source: NWS Daily Summary

Daily Weather History Graph

Daily Weather History Graph

Search for Another Location

Airport or City:

Trip Planner

Search our weather history database for the weather conditions in past years. The results will help you decide how hot, cold, wet, or windy it might be!

Date:

Astronomy

Mar. 18, 2014 Rise Set
Actual Time 7:03 AM EDT 7:07 PM EDT
Civil Twilight 6:36 AM EDT 7:34 PM EDT
Nautical Twilight 6:04 AM EDT 8:06 PM EDT
Astronomical Twilight 5:32 AM EDT 8:39 PM EDT
Moon 9:22 PM EDT (3/18) 7:50 AM EDT (3/18)
Length of Visible Light 12h 57m
Length of Day
12h 03m
Waning Gibbous, 96% of the Moon is Illuminated
Mar 18
Waning Gibbous
Mar 23
Last Quarter
Mar 30
New
Apr 7
First Quarter
Apr 15
Full

Hourly Weather History & Observations

Time (EDT) Temp. Windchill Dew Point Humidity Pressure Visibility Wind Dir Wind Speed Gust Speed Precip Events Conditions
12:53 AM 26.1 °F 21.9 °F 3.0 °F 37% 30.16 in 10.0 mi NE 3.5 mph - N/A   Clear
1:53 AM 25.0 °F - 3.0 °F 39% 30.17 in 10.0 mi Calm Calm - N/A   Clear
2:53 AM 24.1 °F - 3.0 °F 40% 30.17 in 10.0 mi Calm Calm - N/A   Clear
3:53 AM 23.0 °F 18.4 °F 3.9 °F 44% 30.18 in 10.0 mi NE 3.5 mph - N/A   Clear
4:53 AM 21.9 °F - 5.0 °F 48% 30.20 in 10.0 mi Calm Calm - N/A   Clear
5:53 AM 21.0 °F 16.2 °F 5.0 °F 50% 30.21 in 10.0 mi NE 3.5 mph - N/A   Clear
6:53 AM 21.0 °F - 5.0 °F 50% 30.22 in 10.0 mi Calm Calm - N/A   Clear
7:53 AM 23.0 °F - 7.0 °F 50% 30.28 in 10.0 mi Calm Calm - N/A   Clear
8:53 AM 27.0 °F 17.3 °F 7.0 °F 43% 30.30 in 10.0 mi ENE 10.4 mph - N/A   Clear
9:53 AM 30.0 °F 21.1 °F 12.0 °F 47% 30.30 in 10.0 mi East 10.4 mph - N/A   Clear
10:53 AM 33.1 °F 24.4 °F 9.0 °F 37% 30.29 in 10.0 mi ENE 11.5 mph - N/A   Clear
11:53 AM 35.1 °F 27.4 °F 8.1 °F 33% 30.30 in 10.0 mi East 10.4 mph - N/A   Clear
12:53 PM 37.0 °F 29.3 °F 6.1 °F 28% 30.30 in 10.0 mi ESE 11.5 mph 16.1 mph N/A   Clear
1:53 PM 37.9 °F 32.1 °F 1.0 °F 21% 30.30 in 10.0 mi East 8.1 mph 18.4 mph N/A   Clear
2:53 PM 39.0 °F 31.8 °F 3.0 °F 22% 30.30 in 10.0 mi East 11.5 mph 18.4 mph N/A   Clear
3:53 PM 39.9 °F 33.9 °F -6.0 °F 14% 30.30 in 10.0 mi East 9.2 mph - N/A   Clear
4:53 PM 39.9 °F 35.8 °F -2.0 °F 17% 30.28 in 10.0 mi East 5.8 mph - N/A   Clear
5:53 PM 41.0 °F 35.8 °F -4.0 °F 15% 30.29 in 10.0 mi East 8.1 mph - N/A   Clear
6:53 PM 39.0 °F 34.0 °F 6.1 °F 26% 30.29 in 10.0 mi East 6.9 mph - N/A   Clear
7:53 PM 37.0 °F 33.3 °F 6.1 °F 28% 30.30 in 10.0 mi ESE 4.6 mph - N/A   Clear
8:53 PM 34.0 °F - 9.0 °F 35% 30.31 in 10.0 mi Calm Calm - N/A   Clear
9:53 PM 30.9 °F 27.5 °F 12.0 °F 46% 30.31 in 10.0 mi ESE 3.5 mph - N/A   Clear
10:53 PM 30.0 °F - 12.0 °F 47% 30.32 in 10.0 mi Calm Calm - N/A   Clear
11:53 PM 28.9 °F - 12.9 °F 51% 30.33 in 10.0 mi Calm Calm - N/A   Clear